Total_Precipitation_Accumulation
0.01 0.01 0.00 0.01 0.01 0.00 0.01 0.01 0.01 0.00 0.00 0.00 0.00 0.00 0.00 0.00 0.00 0.00 0.00 0.00 0.00 0.00 0.00 0.00 0.00 0.00 0.00 0.00 0.00 0.00 0.00 0.00 0.00 0.00 0.00 0.00 0.00 0.00 0.00 0.00 0.00 0.00 0.00 0.00 0.00 0.00 0.00
0.01 0.01 0.02 0.02 0.02 0.02 0.01 0.01 0.00 0.00 0.00 0.00 0.00 0.00 0.00 0.00 0.00 0.00 0.00 0.00 0.00 0.00 0.00 0.00 0.00 0.00 0.00 0.00 0.00 0.00 0.00 0.00 0.00 0.00 0.00 0.00 0.00 0.00 0.00 0.00 0.00 0.00 0.00 0.00 0.00 0.00 0.00
0.03 0.02 0.02 0.02 0.02 0.02 0.01 0.01 0.01 0.00 0.01 0.01 0.01 0.00 0.00 0.00 0.00 0.00 0.00 0.00 0.00 0.00 0.00 0.00 0.00 0.00 0.00 0.00 0.00 0.00 0.00 0.00 0.00 0.00 0.00 0.00 0.00 0.00 0.00 0.00 0.00 0.00 0.00 0.00 0.00 0.00 0.00
0.02 0.02 0.03 0.03 0.03 0.02 0.01 0.01 0.00 0.00 0.01 0.01 0.00 0.00 0.00 0.00 0.00 0.00 0.00 0.00 0.00 0.00 0.00 0.00 0.00 0.00 0.00 0.00 0.00 0.00 0.00 0.00 0.00 0.00 0.00 0.00 0.00 0.00 0.00 0.00 0.00 0.00 0.00 0.00 0.00 0.00 0.00
0.03 0.03 0.03 0.03 0.04 0.02 0.02 0.02 0.01 0.00 0.01 0.01 0.01 0.01 0.00 0.00 0.00 0.00 0.00 0.00 0.00 0.00 0.00 0.00 0.00 0.00 0.00 0.00 0.00 0.00 0.00 0.00 0.00 0.00 0.00 0.00 0.00 0.00 0.00 0.00 0.00 0.00 0.00 0.00 0.00 0.00 0.00
0.02 0.03 0.03 0.03 0.03 0.02 0.02 0.02 0.02 0.02 0.01 0.01 0.01 0.01 0.00 0.00 0.00 0.00 0.00 0.00 0.00 0.00 0.00 0.00 0.00 0.00 0.00 0.00 0.00 0.00 0.00 0.00 0.00 0.00 0.00 0.00 0.00 0.00 0.00 0.00 0.00 0.00 0.00 0.00 0.00 0.00 0.00
0.03 0.02 0.03 0.03 0.03 0.03 0.03 0.03 0.03 0.03 0.02 0.01 0.01 0.01 0.00 0.00 0.00 0.00 0.00 0.00 0.00 0.00 0.00 0.00 0.00 0.00 0.00 0.00 0.00 0.00 0.00 0.00 0.00 0.00 0.00 0.00 0.00 0.00 0.00 0.00 0.00 0.00 0.00 0.00 0.00 0.00 0.00
0.02 0.02 0.03 0.03 0.02 0.03 0.03 0.03 0.03 0.02 0.01 0.02 0.02 0.00 0.00 0.00 0.00 0.00 0.00 0.00 0.00 0.00 0.00 0.00 0.00 0.00 0.00 0.00 0.00 0.00 0.00 0.00 0.00 0.00 0.00 0.00 0.02 0.00 0.00 0.00 0.00 0.00 0.00 0.00 0.00 0.00 0.00
0.02 0.03 0.03 0.03 0.03 0.03 0.03 0.04 0.03 0.03 0.02 0.02 0.01 0.00 0.00 0.00 0.00 0.00 0.00 0.00 0.00 0.00 0.00 0.00 0.00 0.00 0.00 0.00 0.00 0.00 0.00 0.00 0.00 0.01 0.01 0.03 0.01 0.00 0.00 0.00 0.00 0.00 0.00 0.00 0.00 0.00 0.00
0.04 0.02 0.02 0.03 0.04 0.04 0.05 0.04 0.03 0.03 0.02 0.01 0.01 0.00 0.01 0.00 0.00 0.00 0.00 0.00 0.00 0.00 0.00 0.00 0.00 0.00 0.00 0.00 0.00 0.00 0.00 0.00 0.01 0.01 0.02 0.03 0.00 0.01 0.04 0.04 0.00 0.00 0.00 0.00 0.00 0.02 0.02
0.04 0.05 0.05 0.05 0.04 0.05 0.04 0.03 0.01 0.01 0.01 0.02 0.01 0.00 0.01 0.01 0.01 0.00 0.00 0.00 0.00 0.01 0.00 0.00 0.00 0.00 0.00 0.00 0.00 0.00 0.00 0.00 0.00 0.00 0.04 0.04 0.00 0.07 0.07 0.02 0.00 0.00 0.00 0.03 0.02 0.00 0.00
0.04 0.03 0.03 0.03 0.03 0.03 0.03 0.03 0.03 0.03 0.02 0.01 0.01 0.01 0.02 0.02 0.04 0.01 0.00 0.00 0.01 0.02 0.00 0.00 0.00 0.00 0.00 0.00 0.00 0.00 0.00 0.00 0.00 0.01 0.02 0.01 0.00 0.04 0.03 0.00 0.03 0.07 0.03 0.05 0.01 0.01 0.03
0.03 0.03 0.03 0.04 0.05 0.05 0.05 0.06 0.04 0.02 0.02 0.02 0.02 0.01 0.03 0.03 0.02 0.00 0.00 0.01 0.02 0.01 0.00 0.00 0.00 0.00 0.00 0.00 0.00 0.00 0.00 0.00 0.00 0.01 0.01 0.01 0.00 0.00 0.00 0.00 0.02 0.04 0.08 0.17 0.09 0.04 0.02
0.05 0.04 0.04 0.04 0.05 0.06 0.06 0.05 0.03 0.02 0.02 0.02 0.03 0.02 0.02 0.03 0.03 0.03 0.03 0.03 0.01 0.00 0.00 0.00 0.00 0.00 0.00 0.00 0.00 0.00 0.00 0.00 0.00 0.00 0.01 0.05 0.03 0.01 0.00 0.00 0.00 0.01 0.05 0.06 0.03 0.01 0.00
0.05 0.04 0.04 0.04 0.06 0.06 0.07 0.06 0.05 0.04 0.02 0.02 0.02 0.01 0.03 0.03 0.07 0.10 0.10 0.04 0.00 0.00 0.00 0.00 0.00 0.00 0.00 0.00 0.00 0.00 0.00 0.00 0.00 0.00 0.01 0.01 0.01 0.00 0.00 0.00 0.03 0.04 0.01 0.00 0.10 0.05 0.04
0.05 0.05 0.05 0.05 0.05 0.05 0.05 0.05 0.06 0.05 0.03 0.03 0.04 0.06 0.01 0.03 0.16 0.20 0.19 0.04 0.00 0.00 0.00 0.00 0.00 0.00 0.00 0.00 0.00 0.00 0.02 0.01 0.00 0.00 0.00 0.00 0.00 0.00 0.00 0.00 0.00 0.02 0.04 0.09 0.19 0.05 0.04
0.02 0.03 0.03 0.04 0.05 0.04 0.05 0.06 0.06 0.05 0.05 0.06 0.09 0.10 0.01 0.05 0.28 0.29 0.24 0.02 0.00 0.00 0.00 0.00 0.00 0.00 0.00 0.00 0.00 0.01 0.08 0.02 0.00 0.00 0.00 0.00 0.00 0.02 0.01 0.00 0.00 0.00 0.12 0.09 0.06 0.01 0.07
0.04 0.04 0.04 0.04 0.05 0.05 0.06 0.07 0.08 0.08 0.10 0.09 0.12 0.10 0.09 0.16 0.20 0.21 0.16 0.01 0.00 0.00 0.00 0.00 0.00 0.00 0.00 0.00 0.00 0.00 0.05 0.01 0.00 0.00 0.00 0.00 0.00 0.01 0.01 0.00 0.01 0.02 0.01 0.03 0.13 0.10 0.05
0.04 0.04 0.04 0.04 0.04 0.04 0.05 0.07 0.07 0.08 0.10 0.15 0.17 0.05 0.16 0.42 0.14 0.11 0.10 0.02 0.00 0.00 0.00 0.00 0.00 0.00 0.00 0.00 0.00 0.00 0.01 0.00 0.00 0.00 0.00 0.00 0.01 0.01 0.06 0.03 0.00 0.01 0.02 0.05 0.02 0.11 0.24
0.06 0.06 0.06 0.04 0.03 0.03 0.04 0.08 0.06 0.05 0.09 0.19 0.31 0.15 0.09 0.43 0.33 0.08 0.10 0.04 0.01 0.00 0.00 0.00 0.00 0.00 0.00 0.00 0.00 0.00 0.00 0.00 0.00 0.00 0.00 0.00 0.02 0.03 0.11 0.29 0.27 0.05 0.01 0.04 0.04 0.11 0.08
0.09 0.08 0.08 0.08 0.06 0.03 0.02 0.06 0.06 0.07 0.13 0.22 0.25 0.14 0.06 0.12 0.17 0.13 0.11 0.16 0.06 0.01 0.00 0.00 0.00 0.00 0.00 0.00 0.00 0.00 0.00 0.00 0.00 0.00 0.00 0.00 0.00 0.00 0.03 0.11 0.21 0.23 0.15 0.10 0.08 0.04 0.07
0.12 0.13 0.14 0.13 0.13 0.08 0.04 0.03 0.05 0.08 0.17 0.23 0.18 0.08 0.07 0.07 0.10 0.12 0.14 0.13 0.04 0.02 0.01 0.01 0.00 0.00 0.00 0.00 0.00 0.00 0.00 0.00 0.00 0.00 0.00 0.00 0.00 0.00 0.00 0.00 0.00 0.01 0.04 0.09 0.13 0.11 0.10
0.12 0.13 0.15 0.18 0.21 0.19 0.12 0.05 0.03 0.03 0.16 0.19 0.10 0.08 0.16 0.12 0.05 0.21 0.28 0.07 0.04 0.03 0.03 0.01 0.01 0.03 0.02 0.01 0.00 0.00 0.00 0.00 0.00 0.00 0.00 0.00 0.00 0.00 0.00 0.00 0.00 0.00 0.00 0.00 0.01 0.01 0.01
0.05 0.06 0.08 0.09 0.12 0.15 0.20 0.19 0.11 0.03 0.06 0.08 0.06 0.07 0.15 0.07 0.09 0.05 0.05 0.08 0.08 0.07 0.10 0.05 0.04 0.04 0.03 0.00 0.01 0.01 0.00 0.00 0.00 0.00 0.00 0.00 0.00 0.01 0.01 0.01 0.01 0.00 0.00 0.00 0.00 0.00 0.00
0.06 0.05 0.06 0.07 0.10 0.15 0.20 0.22 0.17 0.07 0.04 0.07 0.08 0.13 0.11 0.07 0.03 0.04 0.04 0.06 0.10 0.11 0.08 0.06 0.05 0.07 0.11 0.07 0.08 0.05 0.02 0.02 0.00 0.00 0.00 0.00 0.00 0.01 0.01 0.00 0.00 0.00 0.00 0.00 0.00 0.00 0.01
0.04 0.04 0.05 0.06 0.06 0.08 0.12 0.19 0.25 0.21 0.12 0.11 0.04 0.10 0.20 0.19 0.05 0.00 0.03 0.05 0.08 0.14 0.16 0.09 0.11 0.17 0.16 0.21 0.14 0.09 0.08 0.06 0.05 0.02 0.00 0.00 0.00 0.02 0.04 0.03 0.00 0.00 0.00 0.00 0.00 0.00 0.01
0.05 0.05 0.05 0.05 0.05 0.08 0.11 0.15 0.22 0.25 0.23 0.19 0.08 0.06 0.21 0.24 0.04 0.04 0.02 0.03 0.06 0.12 0.19 0.17 0.19 0.25 0.22 0.18 0.13 0.06 0.06 0.06 0.11 0.14 0.03 0.01 0.03 0.04 0.03 0.04 0.01 0.00 0.00 0.00 0.03 0.03 0.00
0.04 0.04 0.04 0.05 0.06 0.08 0.10 0.12 0.23 0.33 0.32 0.39 0.18 0.06 0.11 0.15 0.04 0.02 0.04 0.07 0.06 0.14 0.23 0.24 0.43 0.31 0.19 0.17 0.12 0.09 0.10 0.10 0.05 0.13 0.09 0.02 0.06 0.06 0.04 0.06 0.03 0.00 0.03 0.08 0.11 0.01 0.00
0.04 0.04 0.03 0.03 0.04 0.06 0.08 0.09 0.12 0.29 0.48 0.63 0.49 0.11 0.11 0.14 0.08 0.04 0.02 0.02 0.05 0.13 0.33 0.38 0.21 0.29 0.09 0.08 0.08 0.11 0.14 0.12 0.08 0.09 0.10 0.10 0.01 0.05 0.02 0.02 0.04 0.10 0.07 0.07 0.01 0.00 0.00